1506747600.37,28513,15.06,74206.8,-2.69,-39.35,-39.65,0,*55
1506747601.63,28514,15.06,74206.5,-2.69,-39.53,-39.71,0,*57
1506747602.89,28515,15.06,74206.3,-2.69,-39.53,-39.71,0,*56
1506747604.15,28516,15.06,74208.0,-2.69,-39.53,-39.71,0,*55
1506747605.43,28517,15.06,74206.3,-2.67,-39.53,-39.71,0,*5A
1506747606.68,28518,15.06,74204.3,-2.69,-39.47,-39.59,0,*54
1506747607.91,28519,15.0,74204.3,-2.69,-39.47,-39.53,0,*5F
1506747609.15,28520,15.06,74206.3,-2.69,-39.47,-39.59,0,*5F
1506747610.42,28521,15.06,74204.8,-2.69,-39.53,-39.79,0,*59
1506747611.65,28522,15.06,74208.0,-2.73,-39.41,-39.65,0,*5F
1506747612.89,28523,15.06,74210.3,-2.69,-39.47,-39.79,0,*5E
1506747614.13,28524,15.06,74210.0,-2.69,-39.53,-39.91,0,*5A
1506747615.37,28525,15.06,74210.0,-2.69,-39.53,-39.91,0,*5B
1506747616.6,28526,15.06,74206.3,-2.69,-39.35,-39.53,0,*56
1506747617.84,28527,15.06,74208.3,-2.69,-39.35,-39.59,0,*5D
1506747619.07,28528,15.06,74206.3,-2.69,-39.35,-39.53,0,*58
1506747620.35,28529,15.06,74204.8,-2.67,-39.53,-39.71,0,*57
1506747621.59,28530,15.06,74210.5,-2.65,-39.47,-39.71,0,*58
1506747622.85,28531,15.06,74204.0,-2.67,-39.35,-39.59,0,*54
1506747624.11,28532,15.06,74204.5,-2.67,-39.47,-39.79,0,*50
1506747625.39,28533,15.06,74206.8,-2.67,-39.53,-39.71,0,*5C
1506747626.65,28534,15.06,74204.5,-2.67,-39.47,-39.79,0,*56
1506747627.89,28535,15.06,74206.3,-2.65,-39.41,-39.65,0,*5E
1506747629.15,28536,15.06,74206.8,-2.65,-39.15,-39.29,0,*54
1506747630.4,28537,15.06,74210.3,-2.65,-39.29,-39.53,0,*57
1506747631.65,28538,15.06,74204.0,-2.65,-39.29,-39.71,0,*58
1506747632.89,28539,15.06,74210.3,-2.65,-39.41,-39.65,0,*52
1506747634.14,28540,15.06,74208.0,-2.65,-39.41,-39.53,0,*59
1506747635.39,28541,15.0,74204.5,-2.65,-39.29,-39.53,0,*56
1506747636.64,28542,15.06,74210.0,-2.65,-39.29,-39.53,0,*55
1506747637.89,28543,15.06,74206.0,-2.65,-39.41,-39.53,0,*5A
1506747639.13,28544,15.0,74206.5,-2.65,-39.41,-39.65,0,*58
1506747640.36,28545,15.06,74210.0,-2.65,-39.47,-39.71,0,*5A
1506747641.57,28546,15.06,74210.5,-2.65,-39.47,-39.65,0,*5C
1506747642.82,28547,15.06,74206.3,-2.65,-39.41,-39.53,0,*5E
1506747644.06,28548,15.06,74208.8,-2.61,-39.41,-39.65,0,*50
1506747645.32,28549,15.06,74206.8,-2.63,-39.41,-39.65,0,*53
1506747646.58,28550,15.06,74210.0,-2.63,-39.23,-39.47,0,*5F
1506747647.82,28551,15.06,74204.3,-2.61,-39.29,-39.53,0,*53
1506747649.09,28552,15.06,74206.8,-2.63,-39.41,-39.65,0,*59
1506747650.35,28553,15.06,74208.3,-2.63,-39.41,-39.65,0,*58
1506747651.6,28554,15.06,74206.5,-2.61,-39.23,-39.41,0,*5F
1506747652.85,28555,15.06,74208.8,-2.61,-39.03,-39.41,0,*5C
1506747654.05,28556,15.06,74206.8,-2.61,-39.35,-39.47,0,*5C
1506747655.29,28557,15.06,74210.0,-2.61,-39.41,-39.65,0,*5E
1506747656.52,28558,15.06,74210.3,-2.61,-39.35,-39.59,0,*5D
1506747657.78,28559,15.06,74208.5,-2.59,-39.35,-39.79,0,*55
1506747659.02,28560,15.06,74210.3,-2.59,-39.35,-39.65,0,*52
1506747660.3,28561,15.0,74208.0,-2.59,-39.41,-39.79,0,*5D
1506747661.57,28562,15.06,74210.5,-2.59,-39.41,-39.65,0,*53
1506747662.83,28563,15.06,74208.8,-2.61,-39.41,-39.59,0,*56
1506747664.06,28564,15.06,74206.0,-2.61,-39.35,-39.59,0,*52
1506747665.32,28565,15.06,74210.3,-2.61,-39.41,-39.59,0,*50
1506747666.58,28566,15.06,74204.5,-2.61,-39.41,-39.59,0,*53
1506747667.84,28567,15.0,74206.0,-2.59,-39.41,-39.65,0,*56
1506747669.1,28568,15.06,74206.5,-2.59,-39.41,-39.65,0,*59
1506747670.32,28569,15.06,74208.5,-2.57,-39.35,-39.53,0,*50
1506747671.59,28570,15.06,74208.0,-2.59,-39.41,-39.65,0,*50
1506747672.85,28571,15.06,74210.0,-2.59,-39.41,-39.65,0,*51
1506747674.1,28572,15.06,74206.0,-2.59,-39.35,-39.41,0,*57
1506747675.38,28573,15.06,74208.5,-2.59,-39.41,-39.53,0,*56
1506747676.62,28574,15.0,74202.5,-2.59,-39.35,-39.65,0,*57
1506747677.9,28575,15.06,74210.5,-2.59,-39.41,-39.59,0,*5A
1506747679.15,28576,15.06,74210.8,-2.57,-39.29,-39.59,0,*59
1506747680.4,28577,15.06,74210.0,-2.57,-39.29,-39.53,0,*52
1506747681.63,28578,15.0,74206.3,-2.57,-39.35,-39.59,0,*5A
1506747682.88,28579,15.06,74210.0,-2.57,-39.29,-39.53,0,*5C
1506747684.1,28580,15.0,74204.3,-2.57,-39.35,-39.53,0,*57
1506747685.33,28581,15.06,74208.3,-2.57,-39.35,-39.59,0,*5C
1506747686.56,28582,15.06,74208.5,-2.57,-39.35,-39.71,0,*55
1506747687.81,28583,15.06,74210.0,-2.55,-39.23,-39.65,0,*54
1506747689.04,28584,15.06,74208.8,-2.53,-39.23,-39.47,0,*55
1506747690.29,28585,15.06,74206.8,-2.53,-39.29,-39.53,0,*5B
1506747691.54,28586,15.06,74208.3,-2.55,-39.35,-39.53,0,*53
1506747692.79,28587,15.06,74208.5,-2.53,-39.29,-39.53,0,*59
1506747694.06,28588,15.06,74204.0,-2.55,-39.29,-39.53,0,*50
1506747695.33,28589,15.06,74206.8,-2.55,-39.29,-39.53,0,*51
1506747696.59,28590,15.06,74208.3,-2.53,-39.29,-39.71,0,*5F
1506747697.84,28591,15.06,74210.0,-2.53,-39.29,-39.71,0,*5E
1506747699.12,28592,15.06,74208.8,-2.55,-39.29,-39.53,0,*5B
1506747700.36,28593,15.06,74204.8,-2.53,-39.29,-39.53,0,*5C
1506747701.61,28594,15.06,74204.0,-2.53,-39.23,-39.53,0,*51
1506747702.86,28595,15.06,74206.5,-2.53,-39.29,-39.53,0,*5A
1506747704.12,28596,15.06,74206.5,-2.51,-39.15,-39.47,0,*51
1506747705.4,28597,15.06,74208.5,-2.51,-39.15,-39.41,0,*56
1506747706.65,28598,15.06,74210.0,-2.51,-39.23,-39.47,0,*5A
1506747707.89,28599,15.06,74210.3,-2.51,-39.23,-39.47,0,*5B
1506747709.14,28600,15.06,74206.0,-2.49,-39.23,-39.41,0,*57
1506747710.4,28601,15.06,74210.0,-2.51,-39.15,-39.47,0,*5C
1506747711.62,28602,15.06,74208.8,-2.49,-39.15,-39.47,0,*56
1506747712.91,28603,15.06,74208.0,-2.51,-39.23,-39.59,0,*54
1506747714.14,28604,15.06,74204.5,-2.49,-39.41,-39.65,0,*51
1506747715.39,28605,15.06,74208.3,-2.49,-39.29,-39.59,0,*51
1506747716.64,28606,15.06,74204.8,-2.49,-39.29,-39.59,0,*52
1506747717.9,28607,15.06,74206.3,-2.49,-39.23,-39.59,0,*59
1506747719.18,28608,15.06,74204.0,-2.51,-39.15,-39.41,0,*53
1506747720.43,28609,15.06,74210.3,-2.49,-39.23,-39.41,0,*5E
1506747721.68,28610,15.06,74208.5,-2.49,-39.03,-39.29,0,*5A
1506747722.91,28611,15.06,74210.3,-2.45,-39.09,-39.23,0,*57
1506747724.17,28612,15.06,74204.0,-2.45,-39.15,-39.41,0,*5D
1506747725.42,28613,15.06,74208.8,-2.45,-39.15,-39.41,0,*5C
1506747726.68,28614,15.06,74206.3,-2.45,-39.15,-39.53,0,*58
1506747727.95,28615,15.06,74206.8,-2.43,-39.15,-39.59,0,*55
1506747729.21,28616,15.06,74210.0,-2.45,-39.15,-39.41,0,*59
1506747730.47,28617,15.06,74208.3,-2.43,-39.15,-39.53,0,*5D
1506747731.7,28618,15.06,74208.5,-2.43,-39.35,-39.59,0,*5A
1506747732.96,28619,15.06,74210.8,-2.43,-39.23,-39.53,0,*56
1506747734.22,28620,15.06,74208.5,-2.43,-39.23,-39.59,0,*56
1506747735.48,28621,15.06,74210.3,-2.43,-39.15,-39.53,0,*58
1506747736.74,28622,15.06,74208.3,-2.43,-39.23,-39.53,0,*5E
1506747737.99,28623,15.06,74208.3,-2.41,-39.09,-39.53,0,*55
1506747739.25,28624,15.06,74210.3,-2.41,-39.29,-39.65,0,*55
1506747740.53,28625,15.06,74208.8,-2.41,-39.29,-39.53,0,*51
1506747741.81,28626,15.06,74208.3,-2.41,-39.15,-39.53,0,*5D
1506747743.09,28627,15.06,74208.5,-2.41,-39.29,-39.53,0,*53
1506747744.37,28628,15.06,74204.8,-2.41,-39.29,-39.71,0,*5C
1506747745.65,28629,15.06,74208.0,-2.41,-39.29,-39.53,0,*5D
1506747746.9,28630,15.06,74208.0,-2.41,-39.15,-39.47,0,*5F
1506747748.18,28631,15.06,74208.3,-2.41,-39.29,-39.53,0,*54
1506747749.44,28632,15.06,74204.8,-2.41,-39.15,-39.47,0,*5D
1506747750.68,28633,15.06,74208.0,-2.39,-39.15,-39.47,0,*53
1506747751.94,28634,15.06,74208.0,-2.39,-39.15,-39.53,0,*51
1506747753.18,28635,15.06,74210.0,-2.39,-39.15,-39.47,0,*55
1506747754.44,28636,15.06,74212.5,-2.39,-39.15,-39.53,0,*53
1506747755.68,28637,15.06,74208.0,-2.39,-39.15,-39.47,0,*57
1506747756.91,28638,15.06,74210.0,-2.37,-39.09,-39.47,0,*5B
1506747758.15,28639,15.06,74206.8,-2.37,-39.09,-39.47,0,*5A
1506747759.41,28640,15.06,74208.3,-2.37,-39.09,-39.29,0,*5C
1506747760.68,28641,15.0,74206.0,-2.37,-39.09,-39.41,0,*53
1506747761.93,28642,15.06,74208.5,-2.35,-39.03,-39.41,0,*58
1506747763.22,28643,15.06,74210.5,-2.37,-39.29,-39.59,0,*5A
1506747764.47,28644,15.06,74208.5,-2.35,-39.03,-39.23,0,*5A
1506747765.73,28645,15.06,74208.5,-2.35,-39.03,-39.59,0,*56
1506747766.96,28646,15.06,74210.0,-2.35,-39.03,-39.35,0,*5F
1506747768.22,28647,15.06,74208.3,-2.35,-39.03,-39.41,0,*5D
1506747769.48,28648,15.06,74208.5,-2.35,-39.15,-39.41,0,*55
1506747770.73,28649,15.06,74208.0,-2.35,-39.03,-39.41,0,*53
1506747771.99,28650,15.06,74206.3,-2.35,-39.03,-39.23,0,*5F
1506747773.21,28651,15.06,74208.0,-2.33,-38.97,-39.35,0,*53
1506747774.5,28652,15.06,74208.0,-2.33,-39.15,-39.41,0,*58
1506747775.75,28653,15.06,74208.8,-2.33,-39.03,-39.35,0,*5D
1506747777.04,28654,15.06,74208.0,-2.33,-39.15,-39.53,0,*5D
1506747778.28,28655,15.06,74210.0,-2.31,-39.15,-39.47,0,*5B
1506747779.56,28656,15.06,74208.3,-2.33,-39.15,-39.53,0,*5F
1506747780.77,28657,15.06,74208.5,-2.31,-39.09,-39.47,0,*54
1506747781.98,28658,15.06,74206.3,-2.31,-38.97,-39.47,0,*5D
1506747783.19,28659,15.06,74206.8,-2.31,-39.09,-39.47,0,*5A
1506747784.39,28660,15.06,74208.3,-2.31,-38.97,-39.47,0,*56
1506747785.62,28661,15.06,74208.5,-2.31,-39.09,-39.53,0,*54
1506747786.88,28662,15.06,74206.8,-2.27,-39.03,-39.41,0,*59
1506747788.1,28663,15.06,74204.5,-2.29,-38.97,-39.35,0,*59
1506747789.36,28664,15.06,74206.5,-2.27,-38.91,-39.23,0,*51
1506747790.59,28665,15.06,74210.0,-2.29,-39.09,-39.47,0,*5C
1506747791.79,28666,15.06,74210.8,-2.27,-39.09,-39.47,0,*51
1506747793.0,28667,15.06,74210.5,-2.27,-39.09,-39.47,0,*50
1506747794.24,28668,15.06,74208.0,-2.27,-39.09,-39.41,0,*59
1506747795.49,28669,15.06,74210.3,-2.29,-39.15,-39.47,0,*5D
1506747796.78,28670,15.06,74208.8,-2.29,-39.15,-39.53,0,*50
1506747798.04,28671,15.06,74208.8,-2.29,-39.15,-39.47,0,*54
1506747799.26,28672,15.06,74208.8,-2.27,-39.03,-39.47,0,*5E
1506747800.5,28673,15.06,74206.3,-2.27,-39.09,-39.41,0,*53
1506747801.75,28674,15.06,74204.8,-2.27,-38.91,-39.41,0,*54
1506747803.01,28675,15.06,74208.3,-2.27,-39.03,-39.41,0,*5F
1506747804.26,28676,15.0,74204.3,-2.27,-39.03,-39.41,0,*5C
1506747805.52,28677,15.06,74210.5,-2.23,-38.91,-39.29,0,*5D
1506747806.77,28678,15.06,74208.8,-2.23,-39.03,-39.41,0,*56
1506747807.98,28679,15.06,74208.3,-2.23,-39.09,-39.47,0,*5B
1506747809.27,28680,15.0,74206.3,-2.21,-39.15,-39.41,0,*54
1506747810.52,28681,15.06,74206.5,-2.21,-39.15,-39.35,0,*56
1506747811.81,28682,15.06,74210.8,-2.21,-39.15,-39.53,0,*55
1506747813.06,28683,15.06,74206.5,-2.21,-39.03,-39.35,0,*53
1506747814.31,28684,15.06,74208.8,-2.21,-38.97,-39.41,0,*5B
1506747815.53,28685,15.06,74210.3,-2.21,-38.97,-39.35,0,*59
1506747816.76,28686,15.06,74208.0,-2.19,-38.85,-39.15,0,*50
1506747817.98,28687,15.06,74206.8,-2.19,-38.97,-39.41,0,*53
1506747819.26,28688,15.06,74208.3,-2.17,-38.91,-39.29,0,*5A
1506747820.51,28689,15.0,74206.0,-2.19,-38.79,-39.15,0,*5C
1506747821.79,28690,15.06,74208.3,-2.17,-38.91,-39.29,0,*53
1506747823.03,28691,15.06,74210.8,-2.17,-38.97,-39.29,0,*54
1506747824.31,28692,15.0,74206.3,-2.17,-38.91,-39.29,0,*51
1506747825.56,28693,15.06,74208.8,-2.17,-38.91,-39.47,0,*58
1506747826.78,28694,15.0,74204.0,-2.17,-39.09,-39.47,0,*5F
1506747828.0,28695,15.06,74208.5,-2.17,-38.97,-39.47,0,*58
1506747829.27,28696,15.06,74206.5,-2.17,-39.29,-39.53,0,*5A
1506747830.5,28697,15.06,74208.0,-2.15,-38.91,-39.35,0,*5B
1506747831.77,28698,15.06,74206.8,-2.13,-38.91,-39.41,0,*51
1506747832.97,28699,15.0,74206.8,-2.15,-38.97,-39.47,0,*56
1506747834.23,28700,15.06,74204.8,-2.13,-38.85,-39.29,0,*5A
1506747835.45,28701,15.0,74206.3,-2.15,-38.91,-39.35,0,*55
1506747836.73,28702,15.06,74206.8,-2.13,-39.03,-39.29,0,*57
1506747837.98,28703,15.06,74210.0,-2.13,-39.03,-39.47,0,*5E
1506747839.23,28704,15.06,74206.8,-2.11,-39.03,-39.35,0,*5E
1506747840.5,28705,15.0,74206.8,-2.11,-39.03,-39.41,0,*5C
1506747841.75,28706,15.06,74208.5,-2.11,-39.03,-39.35,0,*5C
1506747843.03,28707,15.06,74208.3,-2.11,-39.03,-39.41,0,*5E
1506747844.31,28708,15.06,74206.3,-2.11,-39.15,-39.41,0,*56
1506747845.59,28709,15.06,74210.3,-2.11,-39.23,-39.53,0,*51
1506747846.87,28710,15.06,74208.5,-2.11,-39.15,-39.41,0,*5F
1506747848.12,28711,15.0,74204.5,-2.09,-39.03,-39.41,0,*50
1506747849.34,28712,15.0,74208.3,-2.09,-38.97,-39.23,0,*5B
1506747850.56,28713,15.06,74210.3,-2.09,-38.97,-39.41,0,*5E
1506747851.76,28714,15.0,74204.5,-2.09,-38.97,-39.35,0,*5A
1506747853.04,28715,15.06,74208.5,-2.07,-38.91,-39.29,0,*5E
1506747854.27,28716,15.0,74206.0,-2.07,-39.09,-39.35,0,*50
1506747855.5,28717,15.0,74204.3,-2.07,-39.09,-39.35,0,*51
1506747856.73,28718,15.06,74208.0,-2.07,-39.09,-39.35,0,*5E
1506747858.01,28719,15.06,74206.3,-2.07,-38.91,-39.29,0,*52
1506747859.25,28720,15.06,74208.0,-2.05,-39.09,-39.29,0,*5A
1506747860.45,28721,15.06,74208.8,-2.05,-39.09,-39.35,0,*56
1506747861.66,28722,15.06,74208.8,-2.05,-39.09,-39.35,0,*55
1506747862.88,28723,15.06,74206.5,-2.05,-38.91,-39.35,0,*54
1506747864.11,28724,15.06,74210.0,-2.05,-38.97,-39.29,0,*58
1506747865.31,28725,15.06,74210.0,-2.05,-39.09,-39.47,0,*57
1506747866.56,28726,15.06,74210.3,-2.01,-38.91,-39.23,0,*52
1506747867.82,28727,15.06,74208.8,-2.01,-38.91,-39.29,0,*59
1506747869.09,28728,15.06,74204.8,-1.99,-39.03,-39.29,0,*5E
1506747870.37,28729,15.06,74206.8,-1.99,-38.91,-39.29,0,*55
1506747871.62,28730,15.06,74206.8,-2.01,-38.91,-39.29,0,*5F
1506747872.85,28731,15.06,74208.3,-2.01,-39.09,-39.29,0,*5E
1506747874.13,28732,15.06,74210.5,-1.99,-39.03,-39.29,0,*55
1506747875.41,28733,15.06,74208.0,-1.99,-38.91,-39.29,0,*5E
1506747876.66,28734,15.06,74206.8,-2.01,-39.03,-39.29,0,*51
1506747877.94,28735,15.06,74210.0,-1.99,-38.91,-39.29,0,*58
1506747879.2,28736,15.06,74204.8,-1.99,-39.09,-39.29,0,*5B
1506747880.47,28737,15.06,74208.5,-1.99,-39.03,-39.41,0,*5E
1506747881.73,28738,15.06,74210.8,-1.99,-39.09,-39.41,0,*5B
1506747882.93,28739,15.06,74210.0,-1.97,-38.85,-39.35,0,*52
1506747884.13,28740,15.06,74204.8,-1.97,-38.85,-39.35,0,*5C
1506747885.37,28741,15.06,74206.5,-1.95,-38.97,-39.23,0,*5B
1506747886.6,28742,15.0,74206.3,-1.97,-39.15,-39.35,0,*56
1506747887.82,28743,15.0,74206.8,-1.95,-38.97,-39.35,0,*5E
1506747889.05,28744,15.06,74210.3,-1.95,-38.85,-39.35,0,*5A
1506747890.27,28745,15.06,74210.3,-1.95,-38.85,-39.35,0,*5B
1506747891.56,28746,15.06,74208.8,-1.95,-39.15,-39.41,0,*53
1506747892.8,28747,15.06,74208.8,-1.95,-39.03,-39.35,0,*56
1506747894.06,28748,15.06,74204.5,-1.95,-39.15,-39.35,0,*5E
1506747895.31,28749,15.06,74208.3,-1.93,-38.91,-39.29,0,*59
1506747896.56,28750,15.06,74206.5,-1.91,-38.91,-39.35,0,*5E
1506747897.81,28751,15.06,74206.5,-1.91,-38.97,-39.29,0,*54
1506747899.03,28752,15.0,74206.3,-1.91,-39.09,-39.35,0,*5C
1506747900.29,28753,15.06,74210.8,-1.91,-39.15,-39.47,0,*55
1506747901.52,28754,15.06,74204.3,-1.91,-39.09,-39.47,0,*5F
1506747902.72,28755,15.06,74210.8,-1.93,-39.09,-39.47,0,*5C
1506747903.95,28756,15.06,74210.0,-1.91,-39.09,-39.47,0,*5D
1506747905.17,28757,15.06,74208.8,-1.91,-38.97,-39.47,0,*5A
1506747906.42,28758,15.0,74206.3,-1.87,-38.85,-39.23,0,*53
1506747907.68,28759,15.06,74208.8,-1.89,-39.03,-39.29,0,*59
1506747908.93,28760,15.06,74206.3,-1.89,-39.03,-39.41,0,*5D
1506747910.18,28761,15.06,74210.5,-1.89,-39.03,-39.29,0,*52
1506747911.42,28762,15.06,74206.3,-1.87,-38.97,-39.23,0,*59
1506747912.67,28763,15.06,74208.0,-1.89,-39.03,-39.29,0,*50
1506747913.92,28764,15.06,74208.5,-1.87,-38.97,-39.15,0,*5A
1506747915.18,28765,15.06,74208.3,-1.89,-39.15,-39.23,0,*5B
1506747916.41,28766,15.06,74210.8,-1.89,-39.09,-39.41,0,*51
1506747917.66,28767,15.06,74208.5,-1.87,-38.85,-39.23,0,*5F
1506747918.91,28768,15.06,74210.0,-1.85,-39.03,-39.23,0,*5D
1506747920.14,28769,15.0,74204.8,-1.85,-38.85,-39.23,0,*53
1506747921.39,28770,15.0,74204.0,-1.83,-38.97,-39.29,0,*54
1506747922.61,28771,15.06,74208.5,-1.85,-38.97,-39.29,0,*53
1506747923.87,28772,15.06,74208.3,-1.85,-39.15,-39.41,0,*55
1506747925.12,28773,15.06,74210.5,-1.83,-38.97,-39.29,0,*57
1506747926.37,28774,15.06,74208.3,-1.83,-38.97,-39.29,0,*50
1506747927.65,28775,15.06,74204.5,-1.83,-38.79,-39.29,0,*51
1506747928.88,28776,15.06,74204.5,-1.83,-38.97,-39.35,0,*5F
1506747930.13,28777,15.0,74206.3,-1.81,-38.91,-39.15,0,*58
1506747931.41,28778,15.06,74208.5,-1.83,-38.91,-39.29,0,*5A
1506747932.63,28779,15.06,74206.0,-1.81,-38.97,-39.29,0,*5F
1506747933.86,28780,15.06,74208.3,-1.81,-39.09,-39.15,0,*50
1506747935.12,28781,15.0,74206.0,-1.77,-38.97,-39.23,0,*5B
1506747936.35,28782,15.06,74208.3,-1.81,-39.09,-39.41,0,*53
1506747937.6,28783,15.0,74204.3,-1.77,-38.97,-39.23,0,*59
1506747938.86,28784,15.0,74204.3,-1.77,-38.97,-39.23,0,*5E
1506747940.14,28785,15.06,74210.8,-1.77,-38.79,-39.23,0,*5F
1506747941.4,28786,15.06,74210.0,-1.77,-38.97,-39.29,0,*56
1506747942.65,28787,15.06,74208.8,-1.77,-38.97,-39.23,0,*5D
1506747943.91,28788,15.06,74212.3,-1.75,-39.03,-39.23,0,*5C
1506747945.16,28789,15.06,74210.0,-1.75,-39.03,-39.29,0,*57
1506747946.4,28790,15.06,74210.8,-1.75,-39.15,-39.47,0,*50
1506747947.67,28791,15.06,74206.3,-1.75,-39.15,-39.59,0,*5E
1506747948.92,28792,15.06,74208.0,-1.73,-39.09,-39.41,0,*5F
1506747950.15,28793,15.06,74210.3,-1.73,-39.09,-39.35,0,*5D
1506747951.41,28794,15.0,74204.0,-1.75,-39.03,-39.41,0,*55
1506747952.68,28795,15.0,74204.3,-1.73,-38.91,-39.23,0,*5C
1506747953.93,28796,15.06,74208.8,-1.73,-38.97,-39.23,0,*59
1506747955.19,28797,15.0,74204.0,-1.71,-38.91,-39.23,0,*5C
1506747956.45,28798,15.06,74208.3,-1.71,-38.91,-39.15,0,*56
1506747957.67,28799,15.06,74210.3,-1.71,-38.97,-39.23,0,*54
1506747958.91,28800,15.06,74210.5,-1.71,-39.09,-39.23,0,*5D
1506747960.17,28801,15.06,74210.0,-1.69,-38.85,-39.29,0,*5A
1506747961.45,28802,15.06,74210.5,-1.69,-38.91,-39.15,0,*53
1506747962.73,28803,15.0,74208.0,-1.69,-38.91,-39.23,0,*57
1506747964.02,28804,15.0,74206.0,-1.69,-39.03,-39.15,0,*5F
1506747965.27,28805,15.06,74210.0,-1.71,-39.03,-39.23,0,*52
1506747966.55,28806,15.0,74206.8,-1.69,-39.03,-39.29,0,*52
1506747967.8,28807,15.0,74206.0,-1.69,-39.03,-39.35,0,*5E
1506747969.05,28808,15.06,74206.8,-1.69,-39.03,-39.35,0,*51
1506747970.31,28809,15.06,74208.8,-1.67,-38.91,-39.29,0,*59
1506747971.52,28810,15.06,74210.3,-1.67,-39.09,-39.35,0,*5C
1506747972.74,28811,15.0,74204.8,-1.67,-38.91,-39.35,0,*5D
1506747973.99,28812,15.06,74208.0,-1.65,-38.97,-39.41,0,*59
1506747975.25,28813,15.06,74208.8,-1.65,-38.85,-39.29,0,*55
1506747976.5,28814,15.06,74208.0,-1.65,-38.97,-39.29,0,*51
1506747977.73,28815,15.06,74208.3,-1.67,-39.03,-39.35,0,*53
1506747978.96,28816,15.06,74208.8,-1.65,-39.09,-39.47,0,*5D
1506747980.21,28817,15.06,74206.8,-1.65,-38.97,-39.29,0,*52
1506747981.44,28818,15.0,74206.0,-1.65,-39.09,-39.47,0,*53
1506747982.72,28819,15.06,74206.8,-1.65,-39.03,-39.41,0,*5E
1506747983.97,28820,15.06,74208.3,-1.65,-39.03,-39.47,0,*52
1506747985.2,28821,15.06,74208.5,-1.63,-38.91,-39.35,0,*5A
1506747986.46,28822,15.06,74208.0,-1.63,-38.91,-39.23,0,*5E
1506747987.71,28823,15.0,74206.0,-1.63,-38.91,-39.23,0,*5F
1506747988.96,28824,15.06,74210.3,-1.61,-38.97,-39.53,0,*5B
1506747990.25,28825,15.06,74210.0,-1.61,-39.23,-39.53,0,*54
1506747991.5,28826,15.06,74206.5,-1.61,-38.97,-39.41,0,*5A
1506747992.75,28827,15.0,74204.5,-1.61,-39.03,-39.35,0,*54
1506747993.98,28828,15.0,74210.0,-1.61,-38.97,-39.35,0,*57
1506747995.26,28829,15.06,74208.0,-1.61,-38.91,-39.03,0,*55
1506747996.54,28830,15.0,74206.3,-1.61,-38.91,-39.23,0,*5F
1506747997.79,28831,15.0,74206.8,-1.61,-38.97,-39.23,0,*58
1506747999.02,28832,15.06,74210.0,-1.59,-38.91,-39.35,0,*51
1506748000.28,28833,15.06,74210.8,-1.59,-38.91,-39.29,0,*5D
1506748001.51,28834,15.06,74208.5,-1.59,-38.97,-39.29,0,*5C
1506748002.77,28835,15.06,74206.5,-1.55,-38.91,-39.29,0,*57
1506748004.0,28836,15.06,74208.5,-1.55,-38.97,-39.29,0,*52
1506748005.19,28837,15.0,74206.8,-1.59,-38.97,-39.35,0,*52
1506748006.4,28838,15.06,74208.3,-1.55,-39.09,-39.35,0,*57
1506748007.64,28839,15.06,74204.8,-1.55,-39.15,-39.47,0,*5E
1506748008.86,28840,15.06,74210.5,-1.55,-38.91,-39.35,0,*58
1506748010.11,28841,15.0,74206.8,-1.53,-39.03,-39.47,0,*50
1506748011.39,28842,15.06,74210.5,-1.53,-39.03,-39.41,0,*55
1506748012.67,28843,15.06,74210.0,-1.53,-39.03,-39.41,0,*54
1506748013.95,28844,15.0,74204.5,-1.53,-38.91,-39.29,0,*57
1506748015.2,28845,15.06,74204.5,-1.51,-39.03,-39.29,0,*5E
1506748016.48,28846,15.0,74206.0,-1.53,-38.91,-39.29,0,*55
1506748017.74,28847,15.06,74208.3,-1.53,-38.85,-39.41,0,*5F
1506748018.99,28848,15.0,74206.8,-1.51,-39.03,-39.41,0,*5D
1506748020.22,28849,15.06,74210.0,-1.51,-38.85,-39.23,0,*57
1506748021.48,28850,15.06,74208.0,-1.51,-38.91,-39.29,0,*50
1506748022.76,28851,15.06,74208.5,-1.53,-38.91,-39.29,0,*53
1506748023.99,28852,15.06,74206.8,-1.51,-39.09,-39.41,0,*5C
1506748025.19,28853,15.06,74210.5,-1.51,-39.09,-39.47,0,*5B
1506748026.43,28854,15.06,74208.5,-1.51,-39.09,-39.41,0,*5A
1506748027.7,28855,15.06,74210.5,-1.49,-39.03,-39.41,0,*58
1506748028.98,28856,15.06,74208.5,-1.47,-39.03,-39.53,0,*56
1506748030.26,28857,15.0,74204.3,-1.47,-39.03,-39.53,0,*57
1506748031.54,28858,15.06,74208.3,-1.47,-39.03,-39.53,0,*58
1506748032.76,28859,15.0,74204.8,-1.49,-38.97,-39.35,0,*5B
1506748033.98,28860,15.06,74206.0,-1.47,-38.97,-39.35,0,*5F
1506748035.27,28861,15.0,74206.8,-1.47,-39.15,-39.53,0,*55
1506748036.54,28862,15.0,74202.8,-1.47,-39.03,-39.53,0,*51
1506748037.82,28863,15.06,74208.3,-1.47,-39.03,-39.53,0,*50
1506748039.03,28864,15.0,74208.3,-1.45,-39.09,-39.47,0,*5A
1506748040.29,28865,15.06,74210.0,-1.43,-38.85,-39.29,0,*50
1506748041.52,28866,15.0,74206.3,-1.45,-38.91,-39.35,0,*5D
1506748042.78,28867,15.06,74208.0,-1.43,-38.85,-39.29,0,*52
1506748044.05,28868,15.06,74210.3,-1.43,-38.85,-39.29,0,*5D
1506748045.33,28869,15.06,74208.3,-1.43,-38.91,-39.29,0,*59
1506748046.59,28870,15.0,74206.3,-1.43,-38.85,-39.29,0,*54
1506748047.87,28871,15.06,74210.8,-1.43,-38.91,-39.29,0,*50
1506748049.12,28872,15.0,74206.0,-1.41,-39.03,-39.29,0,*5B
1506748050.37,28873,15.06,74208.5,-1.41,-38.91,-39.29,0,*50
1506748051.62,28874,15.06,74210.0,-1.41,-38.91,-39.41,0,*59
1506748052.85,28875,15.06,74208.5,-1.39,-38.85,-39.35,0,*51
1506748054.07,28876,15.0,74210.0,-1.39,-38.97,-39.35,0,*51
1506748055.32,28877,15.0,74206.8,-1.39,-38.97,-39.23,0,*57
1506748056.57,28878,15.0,74210.5,-1.41,-39.03,-39.41,0,*5F
1506748057.79,28879,15.06,74208.3,-1.39,-38.97,-39.35,0,*5E
1506748059.04,28880,15.0,74204.0,-1.39,-39.03,-39.35,0,*54
1506748060.29,28881,15.06,74210.3,-1.35,-38.97,-39.15,0,*57
1506748061.53,28882,15.0,74206.0,-1.31,-38.97,-39.29,0,*5F
1506748062.78,28883,15.0,74206.5,-1.35,-38.97,-39.29,0,*5A
1506748064.06,28884,15.06,74208.3,-1.35,-38.91,-39.29,0,*5B
1506748065.31,28885,15.06,74208.8,-1.35,-38.97,-39.29,0,*5C
1506748066.57,28886,15.06,74210.0,-1.35,-39.09,-39.29,0,*59
1506748067.79,28887,15.0,74206.8,-1.31,-39.09,-39.35,0,*51
1506748069.01,28888,15.06,74210.8,-1.35,-38.97,-39.35,0,*5C
1506748070.23,28889,15.0,74208.5,-1.31,-38.97,-39.35,0,*59
1506748071.45,28890,15.0,74206.8,-1.31,-38.97,-39.35,0,*51
1506748072.67,28891,15.06,74212.3,-1.31,-39.09,-39.35,0,*56
1506748073.89,28892,15.0,74206.3,-1.31,-38.97,-39.35,0,*53
1506748075.16,28893,15.06,74210.3,-1.31,-38.91,-39.29,0,*59
1506748076.41,28894,15.0,74210.3,-1.29,-38.91,-39.23,0,*5D
1506748077.66,28895,15.06,74210.8,-1.29,-38.91,-39.23,0,*5C
1506748078.94,28896,15.06,74208.3,-1.27,-39.03,-39.23,0,*5B
1506748080.17,28897,15.0,74206.8,-1.29,-39.09,-39.41,0,*5A
1506748081.4,28898,15.06,74208.3,-1.29,-39.09,-39.29,0,*5B
1506748082.65,28899,15.0,74206.0,-1.29,-39.03,-39.29,0,*50
1506748083.93,28900,15.06,74206.8,-1.27,-39.03,-39.29,0,*5F
1506748085.21,28901,15.06,74206.5,-1.27,-39.03,-39.41,0,*50
1506748086.49,28902,15.06,74210.8,-1.27,-39.03,-39.29,0,*5D
1506748087.76,28903,15.06,74208.5,-1.27,-38.91,-39.29,0,*56
1506748089.02,28904,15.06,74210.5,-1.27,-39.09,-39.29,0,*51
1506748090.28,28905,15.0,74206.8,-1.27,-39.09,-39.29,0,*50
1506748091.53,28906,15.0,74204.8,-1.23,-39.03,-39.35,0,*50
1506748092.78,28907,15.06,74210.5,-1.25,-39.03,-39.41,0,*54
1506748094.0,28908,15.0,74206.3,-1.25,-39.03,-39.35,0,*58
1506748095.24,28909,15.0,74206.3,-1.23,-39.03,-39.35,0,*5F
1506748096.53,28910,15.0,74206.5,-1.23,-39.15,-39.41,0,*53
1506748097.8,28911,15.06,74208.0,-1.23,-39.23,-39.41,0,*57
1506748099.08,28912,15.0,74208.0,-1.23,-39.03,-39.41,0,*56
1506748100.28,28913,15.0,74204.5,-1.21,-39.09,-39.35,0,*5C